Regional Weather Roundup
Issued by NWS

Home | Current Version | Previous Version | Graphics & Text | Print | Product List | Glossary On
Versions: 1 2 3 4 5 6 7 8 9 10 11 12 13 14 15 16 17 18 19 20 21 22 23 24 25 26 27 28 29 30 31 32 33 34 35 36 37 38 39 40 41 42 43 44 45 46 47 48 49 50
681
ASUS43 KLOT 220103
RWRIL

ILLINOIS REGIONAL WEATHER ROUNDUP
NATIONAL WEATHER SERVICE CHICAGO/ROMEOVILLE IL
700 PM CST TUE FEB 21 2017

NOTE: "FAIR" INDICATES FEW OR NO CLOUDS BELOW 12,000 FEET WITH NO
SIGNIFICANT WEATHER AND/OR OBSTRUCTIONS TO VISIBILITY.

* THESE STATIONS ARE NOT UNDER NWS QUALITY CONTROL. THEY ALSO MAY NOT
  REPORT WEATHER SUCH AS PRECIPITATION OR FOG.

ILZ001-002-007-009-015-016-024-220200-
NORTHWEST ILLINOIS

CITY           SKY/WX    TMP DP  RH WIND       PRES   REMARKS
MOLINE         CLEAR     51  44  77 S5        29.87F
STERLING*      CLOUDY    55  48  77 SE3       29.88F
SAVANNA*       CLOUDY    51  45  78 SE3       29.87F
$$

ILZ003-004-008-010-011-017-018-220200-
NORTH CENTRAL ILLINOIS

CITY           SKY/WX    TMP DP  RH WIND       PRES   REMARKS
ROCKFORD       MOCLDY    56  42  59 S3        29.90F
FREEPORT*      CLOUDY    49  44  83 S5        29.89F
ROCHELLE*      CLOUDY    51  48  89 S3        29.90F
DE KALB*       CLOUDY    52  49  91 S6        29.90F
PERU*          PTCLDY    56  53  87 SW5       29.91S
$$

ILZ005-006-012>014-019>023-220200-
NORTHEAST ILLINOIS

CITY           SKY/WX    TMP DP  RH WIND       PRES   REMARKS
CHICAGO-OHARE  MOCLDY    58  50  75 SW3       29.90R
CHICAGO-MIDWAY MOCLDY    60  52  74 SW3       29.90S
AURORA         PTCLDY    52  49  89 S3        29.90R
LANSING*       PTCLDY    55  53  94 S5        29.91S
JOLIET*        PTCLDY    55  55  98 CALM      29.91S FOG
WAUKEGAN       FOG       49  48  97 CALM      29.89R VSB 1/4
DUPAGE AIRPORT PTCLDY    49  46  90 CALM      29.90R
KANKAKEE*      CLEAR     55  53  93 CALM      29.92S
WHEELING       PTCLDY    55  47  74 CALM      29.90S
MORRIS*        PTCLDY    58  55  90 CALM      29.90S
ROMEOVILLE*    PTCLDY    57  56  95 CALM      29.90S
NORTHERLY ISL    N/A     47  46  97 S8          N/A
$$

LMZ740>746-220200-
SOUTHERN LAKE MICHIGAN

STATION/POSITION SKY/WX   TEMP    WIND        PRES    VSBY  WAVE
                          AIR SEA DIR/SP/G                  HT/PER
                          (F)     (DEG/KT/KT) (MB)    (MI)  (FT/S)
HARRISON CRIB              51     160/ 11/ 12   N/A
BURNHAM HARBOR             48     150/  7/  9   N/A
CALUMET HARBOR             51     120/  3/  5 1012.3S
BURNS HARBOR               56     110/  1/  6 1013.5S
MICHIGAN CITY              56      90/  2/  3   N/A
$$

ILZ025>027-034>036-040-047-049-050-058-095>099-220200-
WEST-CENTRAL ILLINOIS

CITY           SKY/WX    TMP DP  RH WIND       PRES   REMARKS
QUINCY         MOCLDY    61  57  87 CALM      29.92R
GALESBURG*     PTCLDY    57  53  86 S5        29.90F
MACOMB*        CLEAR     58  54  89 CALM      29.94R
JACKSONVILLE*  CLOUDY    60  57  88 S3        29.93R
PITTSFIELD*    CLOUDY    60  58  94 CALM      29.94R
$$

ILZ028>032-037-038-041>044-048-051>054-059>061-220200-
CENTRAL ILLINOIS

CITY           SKY/WX    TMP DP  RH WIND       PRES   REMARKS
PONTIAC        PTCLDY    56  55  97 S5        29.93R
BLOOMINGTON    CLOUDY    59  56  89 S3        29.94R
DECATUR        CLOUDY    59  55  87 CALM      29.94R
PEORIA         MOCLDY    61  55  81 S6        29.92R
LACON*         PTCLDY    55  53  95 CALM      29.91R
LINCOLN*       CLOUDY    61  60  94 CALM      29.94R
SPRINGFIELD    CLOUDY    61  58  90 CALM      29.94R
TAYLORVILLE    CLOUDY    57  56  96 CALM      29.93F
$$

ILZ033-039-045-046-055>057-062-063-220200-
EAST-CENTRAL ILLINOIS

CITY           SKY/WX    TMP DP  RH WIND       PRES   REMARKS
CHAMPAIGN      CLOUDY    58  54  86 E3        29.94R
RANTOUL*       CLOUDY    60  56  87 SE5       29.94R
MATTOON        MOCLDY    57  53  86 CALM      29.93R
PARIS*         CLOUDY    56  52  86 CALM      29.94S
$$

ILZ079-100>102-220200-
SOUTHWEST ILLINOIS

CITY           SKY/WX    TMP DP  RH WIND       PRES   REMARKS
BELLEVILLE     CLOUDY    58  57  99 CALM      29.92R
CAHOKIA*       PTCLDY    59  52  77 SE3       29.92R
SPARTA*        CLOUDY    59  54  84 SE7       29.91F
$$

ILZ064>066-069>071-074>076-080>082-084>086-088>090-092>094-220200-
SOUTH-CENTRAL ILLINOIS

CITY           SKY/WX    TMP DP  RH WIND       PRES   REMARKS
CARBONDALE     CLOUDY    60  55  83 E3        29.93S
CAIRO*         CLOUDY    58  56  91 CALM      29.91S
EFFINGHAM*     CLOUDY    56  55  95 CALM      29.95S
MARION         CLOUDY    61  57  88 CALM      29.94R
MT. VERNON     CLOUDY    57  53  86 CALM      29.93R
CENTRALIA*     CLOUDY    60  55  83 CALM      29.92S
SALEM*         CLOUDY    61  53  76 CALM      29.93R
METROPOLIS*    LGT RAIN  60  56  88 CALM      29.92F
$$

ILZ067-068-072-073-078-083-087-091-220200-
SOUTHEAST ILLINOIS

CITY           SKY/WX    TMP DP  RH WIND       PRES   REMARKS
LAWRENCEVILLE  CLOUDY    56  55  97 E3        29.95R FOG
FLORA*         CLOUDY    58  55  91 SE8       29.94S
FAIRFIELD*     CLOUDY    58  55  90 CALM      29.93R
HARRISBURG*    CLOUDY    58  56  91 NE3       29.94S
ROBINSON*      MOCLDY    54  53  95 SE6       29.95S
CARMI*         CLOUDY    58  55  89 SE6       29.93S
$$

ABBREVIATIONS USED IN REMARKS
   TC - TEMPERATURE IN CELSIUS
  WCI - WIND CHILL INDEX
   HX - HEAT INDEX
  VSB - VISIBILITY
$$





USA.gov is the U.S. government's official web portal to all federal, state and local government web resources and services.